Location: El Carrer d�Abaix
(41.5797°N, 2.1791°E)
Time: 13:00:48
(UTC+00:00)

In-Cosmos 22 - Pass Details

Date: 06 June 2020
Orbit: 785 x 876 km, 81.2° (Epoch: 11 July)

Event Time Altitude Azimuth Distance (km) Brightness Sun altitude
Exits shadow 22:41:27 44° 220° (SW) 1,071 4.5 -23.7°
Maximum altitude 22:42:58 65° 281° (WNW) 866 4.3 -23.8°
Drops below altitude 10° 22:48:14 10° 4° (N) 2,359 7.5 -24.1°
Sets 22:50:39 0° 7° (N) 3,297 8.4 -24.2°
